Simultaneous Nadir Overpasses (SNOs) Predictions

Prediction of SNOs between AQUA and NPP Satellite Orbit:

Table of predicted SNOs for the next 14.0 days since TLE Epoch: 4/25/2014
Index Date (AQUA) Time (AQUA) Lat,Lon (AQUA) SZA (AQUA ) Date (NPP) Time (NPP) Lat,Lon (NPP) SZA (NPP ) Distance(km) Time Diff (sec)
1 04/27/2014 18:35:37 -62.91, -58.62 83.06 04/27/2014 18:34:25 -62.90, -58.64 82.97 1.16 72
2 04/27/2014 19:23:48 67.11, 112.91 92.76 04/27/2014 19:23:52 67.10, 112.86 92.78 2.53 4
3 04/27/2014 20:08:25 -80.95, -33.94 103.63 04/27/2014 20:09:39 -80.52, -32.90 103.83 51.57 74
4 04/30/2014 10:51:47 -64.18, 58.30 85.14 04/30/2014 10:51:02 -64.17, 58.26 85.07 2.08 45
5 04/30/2014 11:40:02 68.13,-130.07 90.90 04/30/2014 11:40:33 68.12,-130.12 90.89 2.44 31
6 05/03/2014 03:07:47 -65.92, 175.77 87.66 05/03/2014 03:07:29 -65.92, 175.76 87.64 0.15 18
7 05/03/2014 03:56:07 69.56, -12.41 88.66 05/03/2014 03:57:05 69.56, -12.40 88.59 0.64 58
8 05/05/2014 18:35:57 62.06, 120.70 95.42 05/05/2014 18:34:52 62.05, 120.66 95.51 2.09 65
9 05/05/2014 19:23:57 -67.10, -67.15 89.60 05/05/2014 19:24:07 -67.10, -67.15 89.61 0.21 10
10 05/08/2014 10:51:52 64.09,-121.80 92.70 05/08/2014 10:51:15 64.09,-121.81 92.74 0.60 37




NCC Satellite Simultaneous Nadir Overpasses (SNOs) Prediction Service
